Погода в Зимовники

Погода в Зимовники : погода сейчас, прогноз погоды и архив. Всё, что Вы хотите узнать о погоде в Зимовники!

Поиск расширенной информации на нашем сайте:

Другие новости

Новости СМИ2

Главная страница сайта

Новости сайта

03.07.2017

Напоминаем, что на нашем специализированном сайте Метеоцентр.Азия вы можете получить высокодетализированные автоматические прогнозы погоды по пунктам России, СНГ и мира в авиационном формате (включающие направление и скорость ветра, видимость, явления погоды, количество и форму облачности, нижнюю и верхнюю границу облачности).


Погода в Зимовники - сегодня

Время (UTC), дата Ветер
(°,м/с) 
Видим.   Явления Облачность Т
(°С)
Тd
(°С)
f(%) Тe
(°С)
Pmin
(гПа)
dP
(гПа)
Po
(мм)
O2
(г/м3)
Тmin Tmax R s Состояние
почвы
09 16.06.18 050 (СВ) 3{10}  10 км    ясно 
+31.8 +6.8 21 +32  1010.1  -0.5  752  270           
12 16.06.18 040 (СВ) 3{10}  10 км    3/0 верхняя 
[Ci sp]
+33.1 +5.6 18 +33  1009.3  -0.8  751  269           
15 16.06.18 060 (СВ) 4-10  10 км    4/0 верхняя 
[Ci fib]
+31.8 +4.5 18 +32  1009.5  0.2  751  270    +34.2       
18 16.06.18 050 (СВ) 2{11}  10 км    3/0 верхняя 
[Ci fib]
+25.9 +4.9 26 +26  1011.5  1.9  752  276           
21 16.06.18 040 (СВ) 10 км    ясно 
+21.6 +2.3 28 +22  1011.9  0.2  753  281           
00 17.06.18 070 (В) 10 км    ясно 
+18.4 -1 27 +19  1013  753  284           
03 17.06.18 070 (В) 5-10  10 км    ясно 
+17.9 -1.4 27 +18  1013.4  0.4  754  285  +17.1        сухая 
06 17.06.18 080 (В) 4{10}  10 км    ясно 
+23.5 -1.5 19 +24  1013.4  0.2  754  280           
09 17.06.18 070 (В) 3{10}  10 км    6/0 верхняя 
[Ci fib]
+26.8 -3 14 +27  1013  -0.3  754  277           
12 17.06.18 070 (В) 10 км    8/0 верхняя 
[Ci fib]
+27.8 -5.4 11 +28  1011.6  -1.4  753  276           
15 17.06.18 080 (В) 4{10}  10 км    8/0 верхняя 
[Ci fib]
+26.7 -4 13 +27  1011  -0.6  752  276    +28.7       
18 17.06.18 060 (СВ) 10 км    9/0 верхняя 
[Ci sp]
+21.8 -2.2 20 +22  1012.1  0.9  753  281           
21 17.06.18 050 (СВ) 10 км    6/0 верхняя 
[Ci fib]
+18.5 -3 23 +19  1011.7  -0.5  752  284           
00 18.06.18 060 (СВ) 10 км    ясно 
+14.9 -1.3 33 +16  1011.7  752  288           
03 18.06.18 070 (В) 10 км    6/0 верхняя 
[Ci sp]
+16.4 -0.4 32 +17  1011.7  0.1  752  286  +13        сухая 
06 18.06.18 070 (В) 10 км    6/0 верхняя 
[Ci fib]
+26.3 -1.5 16 +26  1011.4  -0.1  752  277           
09 18.06.18 070 (В) 10 км    3/0 верхняя 
[Ci fib]
+29.4 -3 12 +29  1010.5  -0.7  752  274           
12 18.06.18 040 (СВ) 10 км    ясно 
+31.3 -2.7 11 +31  1009.8  -0.7  751  272           
15 18.06.18 050 (СВ) 10 км    ясно 
+29.7 -4 11 +30  1009.8  -0.1  751  273    +31.3       
18 18.06.18 030 (СВ) 10 км    ясно 
+23.5 +1.2 23 +24  1010.8  0.9  752  279           
21 18.06.18 070 (В) 10 км    ясно 
+19.2 -0.8 26 +20  1011.3  0.3  752  283           
00 19.06.18 тихо ()   10 км    ясно 
+13.3 +1 43 +13  1012  0.6  753  289           
03 19.06.18 060 (СВ) 10 км    ясно 
+18.9 +1.4 31 +20  1012.8  0.9  753  284  +12.8        сухая 
06 19.06.18 060 (СВ) 10 км    ясно 
+28.8 -1.4 14 +29  1013  0.5  754  275           
09 19.06.18 060 (СВ) 10 км    ясно 
+31.7 -1.2 12 +32  1012.4  -0.5  753  272           
Время (UTC), дата Ветер
(°,м/с) 
Видим.   Явления Облачность Т
(°С)
Тd
(°С)
f(%) Тe
(°С)
Pmin
(гПа)
dP
(гПа)
Po
(мм)
O2
(г/м3)
Тmin Tmax R s Состояние
почвы

Для получения пояснительной информации подведите курсор к названию столбца.

ПОГОДА в Зимовники - архив

Всё, что Вы хотите узнать о погоде в Зимовники - удобно и подробно!

Выберите нужную дату (начиная с 1 января 2015* года) и нажмите кнопку "Найти".
Будут отображены архивные сводки погоды по пункту Зимовники, начиная с указанной даты.


Отображать данные в формате CSV (для использования в таблицах Excel)


Внимание! Наш архив погоды предназначен исключительно для личного некоммерческого использования в познавательных целях. Если Вам необходимы официальные справки о состоянии погоды (для производственных, юридических, коммерческих и т.п. целей), обращайтесь в органы Росгидромета.

*Примечание: данная дата относится к архиву по метеостанциям СССР (Россия, СНГ, Балтия).
Архив по метеостанциям Зарубежной Европы и Азии (кроме Китая) хранится 10 дней, по другим регионам земного шара (Китай, Африка, Америка, Австралия, Океания) - 1 день.

Зимовники - район местоположения метеостанции


Название, широта, долгота, высота метеостанции:
Зимовники 47.2°ш. 42.5°д. 72 м над ур. моря [Российская Федерация]

Дополнительная информация

В oтличие oт бoльшинства пoгoдных сайтoв мы публикуем пoдрoбную метеoинфoрмацию в детальнoм прoфессиoнальнoм фoрмате.

Характеристики температуры и влажнoсти вoздуха измеряются на высoте 2 м в тени вдали oт зданий и деревьев.
Скoрoсть ветра измеряется на высoте 10 м (на урoвне рoста челoвека скoрoсть ветра ниже в 1.5-2 раза). Если метеoстанция нахoдится в гoрoде или в лесу, тo скoрoсть ветра занижена на 2-4 м/с пo сравнению с oткрытым местoм. Скoрoсть ветра над акватoриями крупных рек и oзёр, а также на вершинах хoлмoв на 2-5 м/с выше, чем в oбычных услoвиях.
Атмoсфернoе давление в разных тoчках местнoсти мoжет значительнo oтличаться oт давления на метеoстанции, в зависимoсти oт услoвий рельефа (при пoдъёме на 10 м давление пoнижается примернo на 1 мм рт.ст.).